KF6ILA Weather Reports


Display with metric or nautical units.
time (UTC)temp
F
wind
direction
speed
MPH
gust
MPH
rain 1hr
in
rain 24hr
in
rain mn
in
humidity
%
barometer
mb
20260905012509 69 281 9.0 16.0 0.00 0.00 0.00 46 1013.9
20260905012011 70 255 9.0 18.0 0.00 0.00 0.00 46 1013.9
20260905011017 70 278 8.0 19.0 0.00 0.00 0.00 46 1013.9
20260905010521 70 264 11.0 19.0 0.00 0.00 0.00 45 1013.8
20260905010023 70 270 9.0 19.0 0.00 0.00 0.00 45 1013.7
20260905005030 71 251 15.0 23.0 0.00 0.00 0.00 44 1013.9
20260905004533 71 255 12.0 23.0 0.00 0.00 0.00 45 1013.9
20260905002545 72 263 12.0 24.0 0.00 0.00 0.00 43 1013.6
20260905001054 72 258 14.0 24.0 0.00 0.00 0.00 44 1013.8
20260905000557 72 269 11.0 25.0 0.00 0.00 0.00 44 1013.8
20260904235603 73 249 17.0 23.0 0.00 0.00 0.00 43 1013.9
20260904231627 73 259 11.0 24.0 0.00 0.00 0.00 43 1014.0
20260904230633 76 267 14.0 22.0 0.00 0.00 0.00 39 1014.3
20260904225639 77 257 10.0 21.0 0.00 0.00 0.00 38 1014.2
20260904225142 77 260 10.0 21.0 0.00 0.00 0.00
20260904224645 77 264 9.0 23.0 0.00 0.00 0.00 36 1014.2
20260904223651 77 254 14.0 21.0 0.00 0.00 0.00 35 1014.4
20260904223154 77 261 10.0 21.0 0.00 0.00 0.00 35 1014.3
20260904222200 78 270 14.0 22.0 0.00 0.00 0.00 33 1014.5
20260904220709 77 261 13.0 19.0 0.00 0.00 0.00 32 1014.8
20260904220212 77 214 12.0 19.0 0.00 0.00 0.00 32 1014.9
20260904215218 78 262 12.0 20.0 0.00 0.00 0.00 31 1015.0
20260904214223 78 256 12.0 22.0 0.00 0.00 0.00 30 1015.1
20260904213726 78 226 11.0 22.0 0.00 0.00 0.00 31 1015.2
20260904213230 78 243 9.0 16.0 0.00 0.00 0.00 28 1015.4
20260904212733 78 263 10.0 18.0 0.00 0.00 0.00 30 1015.3
20260904211739 78 253 12.0 22.0 0.00 0.00 0.00 29 1015.3
20260904211242 78 266 13.0 20.0 0.00 0.00 0.00 29 1015.2
20260904210745 77 252 8.0 25.0 0.00 0.00 0.00 30 1015.2
20260904210248 77 248 10.0 25.0 0.00 0.00 0.00 30 1015.2
20260904205751 77 224 13.0 22.0 0.00 0.00 0.00 29 1015.2
20260904203803 77 231 9.0 21.0 0.00 0.00 0.00 27 1015.3
20260904203307 77 232 14.0 20.0 0.00 0.00 0.00 27 1014.4
20260904202809 77 260 13.0 19.0 0.00 0.00 0.00 26 1014.4
20260904202312 77 243 9.0 17.0 0.00 0.00 0.00 26 1014.4
20260904200324 76 273 13.0 20.0 0.00 0.00 0.00 25 1014.6
20260904195827 76 276 11.0 18.0 0.00 0.00 0.00 25 1014.6
20260904195330 76 238 9.0 20.0 0.00 0.00 0.00 25 1014.7
20260904193839 77 274 12.0 19.0 0.00 0.00 0.00 25 1014.7
20260904193342 77 247 11.0 20.0 0.00 0.00 0.00 26 1014.7
20260904192845 77 233 12.0 21.0 0.00 0.00 0.00 25 1014.7
20260904191851 76 278 12.0 23.0 0.00 0.00 0.00 27 1014.7
20260904185903 75 277 11.0 19.0 0.00 0.00 0.00 28 1015.0
20260904182424 74 257 10.0 16.0 0.00 0.00 0.00 28 1015.0
20260904173951 72 237 6.0 19.0 0.00 0.00 0.00 29 1015.1
20260904173454 71 270 12.0 19.0 0.00 0.00 0.00 29 1015.0
20260904172500 71 262 8.0 19.0 0.00 0.00 0.00 27 1015.1
20260904165518 70 245 9.0 18.0 0.00 0.00 0.00 24 1014.9
20260904165021 69 266 11.0 18.0 0.00 0.00 0.00 21 1014.8
20260904164027 69 271 12.0 18.0 0.00 0.00 0.00 21 1014.7
20260904163033 68 274 9.0 16.0 0.00 0.00 0.00 18 1014.6
20260904161542 67 270 12.0 17.0 0.00 0.00 0.00 14 1014.4
20260904161045 67 275 12.0 17.0 0.00 0.00 0.00 14 1014.2
20260904160548 67 278 13.0 17.0 0.00 0.00 0.00 13 1014.3
20260904155057 66 260 9.0 17.0 0.00 0.00 0.00 15 1014.1
20260904153109 64 251 9.0 15.0 0.00 0.00 0.00 15 1013.9
20260904152115 64 262 11.0 15.0 0.00 0.00 0.00 15 1013.7
20260904151618 64 247 9.0 14.0 0.00 0.00 0.00 16 1013.8
20260904150624 63 251 9.0 14.0 0.00 0.00 0.00 18 1013.7
20260904145630 62 247 9.0 15.0 0.00 0.00 0.00 18 1013.6
20260904145133 62 253 9.0 15.0 0.00 0.00 0.00 19 1013.7
20260904144139 61 255 7.0 15.0 0.00 0.00 0.00 20 1013.7
20260904143145 61 249 9.0 17.0 0.00 0.00 0.00 19 1013.6
20260904141654 60 248 13.0 19.0 0.00 0.00 0.00 20 1013.2
20260904135209 58 258 11.0 18.0 0.00 0.00 0.00 28 1013.0
20260904134215 58 252 13.0 20.0 0.00 0.00 0.00 32 1012.7
20260904133718 58 250 13.0 20.0 0.00 0.00 0.00 32 1012.6
20260904132724 58 248 14.0 22.0 0.00 0.00 0.00 34 1012.4
20260904131233 58 259 17.0 22.0 0.00 0.00 0.00 34 1012.1
20260904124748 58 262 16.0 20.0 0.00 0.00 0.00 37 1011.8
20260904123754 57 260 14.0 21.0 0.00 0.00 0.00 38 1011.9
20260904122800 58 263 15.0 21.0 0.00 0.00 0.00 38 1011.8
20260904122306 58 259 13.0 20.0 0.00 0.00 0.00 38 1011.8
20260904121806 58 257 13.0 20.0 0.00 0.00 0.00 38 1011.8
20260904121309 57 261 13.0 20.0 0.00 0.00 0.00 39 1011.8
20260904115818 57 258 14.0 22.0 0.00 0.00 0.00 44 1011.6
20260904115321 57 262 15.0 23.0 0.00 0.00 0.00 46 1011.7
20260904114824 57 266 16.0 23.0 0.00 0.00 0.00 47 1011.6
20260904113830 57 257 14.0 23.0 0.00 0.00 0.00 49 1011.7
20260904113333 57 268 16.0 23.0 0.00 0.00 0.00 50 1011.8
20260904112836 56 262 14.0 22.0 0.00 0.00 0.00 51 1011.8
20260904112339 56 260 14.0 0.0 0.00 0.00 0.00 52 1011.8
20260904110848 56 268 15.0 21.0 0.00 0.00 0.00 53 1011.9
20260904105854 56 267 14.0 21.0 0.00 0.00 0.00 53 1011.7
20260904105357 57 268 14.0 23.0 0.00 0.00 0.00 52 1011.7
20260904104900 57 270 14.0 23.0 0.00 0.00 0.00 50 1011.8
20260904104403 57 265 14.0 23.0 0.00 0.00 0.00 51 1011.8
20260904103906 57 267 14.0 23.0 0.00 0.00 0.00 50 1011.7
20260904103409 57 267 14.0 21.0 0.00 0.00 0.00 50 1011.6
20260904102912 57 264 14.0 22.0 0.00 0.00 0.00 50 1011.6
20260904102415 57 269 14.0 22.0 0.00 0.00 0.00 50 1011.7
20260904101918 57 270 15.0 22.0 0.00 0.00 0.00 50 1011.6
20260904100924 58 269 13.0 22.0 0.00 0.00 0.00 47 1011.7
20260904100427 57 273 15.0 22.0 0.00 0.00 0.00 48 1011.5
20260904095930 57 271 13.0 23.0 0.00 0.00 0.00 48 1011.5
20260904095433 58 265 14.0 23.0 0.00 0.00 0.00 49 1011.5
20260904094936 58 269 16.0 22.0 0.00 0.00 0.00 46 1011.6
20260904093942 58 272 16.0 24.0 0.00 0.00 0.00 45 1011.5
20260904092948 59 271 16.0 24.0 0.00 0.00 0.00 44 1011.5
20260904092451 59 268 16.0 26.0 0.00 0.00 0.00 41 1011.6
20260904091954 60 265 16.0 26.0 0.00 0.00 0.00 40 1011.7
20260904090504 59 268 17.0 24.0 0.00 0.00 0.00 39 1011.8
20260904084515 59 270 14.0 22.0 0.00 0.00 0.00 37 1012.1
20260904084018 59 268 14.0 23.0 0.00 0.00 0.00 37 1012.0
20260904083024 60 271 16.0 24.0 0.00 0.00 0.00 36 1012.1
20260904082527 60 272 16.0 24.0 0.00 0.00 0.00 34 1012.0
20260904081533 60 263 15.0 22.0 0.00 0.00 0.00 31 1012.3
20260904081036 60 256 15.0 23.0 0.00 0.00 0.00 30 1012.3
20260904080042 60 259 15.0 21.0 0.00 0.00 0.00 30 1012.3
20260904075048 60 250 14.0 24.0 0.00 0.00 0.00 31 1012.4
20260904074551 60 252 15.0 24.0 0.00 0.00 0.00 31 1012.5
20260904074054 60 253 17.0 24.0 0.00 0.00 0.00 31 1012.4
20260904073557 60 255 16.0 22.0 0.00 0.00 0.00 32 1012.5
20260904073100 60 252 15.0 22.0 0.00 0.00 0.00 30 1012.6
20260904072106 61 256 15.0 23.0 0.00 0.00 0.00 25 1012.7
20260904071609 61 255 15.0 23.0 0.00 0.00 0.00 23 1012.7
20260904071112 61 252 17.0 23.0 0.00 0.00 0.00 22 1012.7
20260904070615 61 253 15.0 22.0 0.00 0.00 0.00 21 1012.7
20260904070118 61 255 15.0 21.0 0.00 0.00 0.00 20 1012.7
20260904065621 61 254 14.0 23.0 0.00 0.00 0.00 19 1012.7
20260904065124 62 253 16.0 23.0 0.00 0.00 0.00 19 1012.6
20260904064627 62 248 15.0 21.0 0.00 0.00 0.00 19 1012.6
20260904064130 62 241 15.0 21.0 0.00 0.00 0.00 19 1012.5
20260904063633 62 250 15.0 21.0 0.00 0.00 0.00 19 1012.5
20260904062639 62 252 14.0 19.0 0.00 0.00 0.00 19 1012.5
20260904062142 62 243 13.0 19.0 0.00 0.00 0.00 20 1012.5
20260904061148 62 248 14.0 20.0 0.00 0.00 0.00 20 1012.5
20260904060154 62 243 12.0 17.0 0.00 0.00 0.00 21 1012.5
20260904055200 62 247 12.0 18.0 0.00 0.00 0.00 21 1012.6
20260904053212 62 249 11.0 18.0 0.00 0.00 0.00 23 1012.7
20260904052715 62 250 12.0 18.0 0.00 0.00 0.00 23 1012.6
20260904052218 62 250 11.0 18.0 0.00 0.00 0.00 23 1012.6
20260904051721 63 251 12.0 18.0 0.00 0.00 0.00 23 1012.5
20260904051224 63 254 13.0 20.0 0.00 0.00 0.00 23 1012.6
20260904050727 63 247 14.0 21.0 0.00 0.00 0.00 23 1012.6
20260904050230 63 249 15.0 24.0 0.00 0.00 0.00 23 1012.5
20260904044739 63 259 16.0 26.0 0.00 0.00 0.00 24 1013.4
20260904043248 63 254 18.0 23.0 0.00 0.00 0.00 24 1013.4
20260904042751 63 251 17.0 23.0 0.00 0.00 0.00 24 1013.3
20260904041757 62 250 14.0 19.0 0.00 0.00 0.00 29 1013.3
20260904041300 61 253 12.0 17.0 0.00 0.00 0.00 32 1013.4
20260904040306 61 249 12.0 18.0 0.00 0.00 0.00 42 1013.4
20260904035312 61 249 12.0 17.0 0.00 0.00 0.00 47 1013.2
20260904034815 61 252 13.0 17.0 0.00 0.00 0.00 52 1013.1
20260904034318 60 248 12.0 18.0 0.00 0.00 0.00 60 1013.0
20260904033821 60 246 13.0 19.0 0.00 0.00 0.00 65 1013.1
20260904033324 60 246 12.0 19.0 0.00 0.00 0.00 69 1012.9
20260904032827 59 246 12.0 17.0 0.00 0.00 0.00 72 1013.0
20260904032330 59 247 11.0 19.0 0.00 0.00 0.00 74 1012.9
20260904031336 59 250 13.0 18.0 0.00 0.00 0.00 79 1012.6
20260904030839 58 254 13.0 17.0 0.00 0.00 0.00 80 1012.6
20260904025348 58 251 12.0 18.0 0.00 0.00 0.00 82 1012.5
20260904024851 58 252 12.0 18.0 0.00 0.00 0.00 82 1012.6
20260904024354 59 253 13.0 18.0 0.00 0.00 0.00 81 1012.5
20260904022406 60 258 16.0 19.0 0.00 0.00 0.00 79 1012.5
20260904021909 60 260 14.0 19.0 0.00 0.00 0.00 78 1012.4
20260904021412 60 249 12.0 19.0 0.00 0.00 0.00 77 1012.6
20260904020915 61 256 14.0 20.0 0.00 0.00 0.00 76 1012.6
20260904020418 61 258 15.0 20.0 0.00 0.00 0.00 75 1012.5
20260904015921 61 255 12.0 21.0 0.00 0.00 0.00 74 1012.6
20260904015424 62 259 16.0 21.0 0.00 0.00 0.00 73 1012.7
20260904014927 63 259 14.0 20.0 0.00 0.00 0.00 71 1012.7
20260904013933 64 260 14.0 22.0 0.00 0.00 0.00 68 1012.7
20260904012939 65 264 15.0 22.0 0.00 0.00 0.00 66 1012.8